Flag for Germany Weather past 2 weeks in Freiburg, Baden-Württemberg, Germany

Now
57 °F

Light rain. Overcast.


Feels Like: 57 °F
Forecast: 53 / 69 °F
Wind: 5 mph from South

Location: Freiburg

Current Time: Apr 25, 2015 at 9:26:53 AM

Latest Report: Apr 25, 2015 at 9:00 AM


Visibility: 28 mi

Pressure: 29.90 "Hg

Humidity: 76%

Dew point: 50 °F

Location of FreiburgLocation

Historic Weather in Freiburg — Graph

°F

Freiburg temperature yesterday

Maximum temperature yesterday: 71 °F (at 7:00 PM)
Minimum temperature yesterday: 36 °F (at 6:00 AM)
Average temperature yesterday: 54 °F

Past Weeks' High & Low Weather Summary

 TemperatureHumidityPressure
High78 °F (Apr 15, 4:00 PM)97% (Apr 13, 6:00 AM)30.48 "Hg (Apr 13, 6:00 AM)
Low35 °F (Apr 23, 7:00 AM)15% (Apr 15, 4:00 PM)29.88 "Hg (Apr 24, 7:00 PM)
Average55 °F56%30.18 "Hg
* Reported Apr 10 7:00 AM — Apr 25 7:00 AM, Freiburg, Weather by CustomWeather, © 2015

Note: Actual official high and low records may vary slightly from our data, if they occured in-between our weather recording intervals... More about our weather records

Advertising

Freiburg weather history for previous 24 hours

 ConditionsComfort  
Time TempWeatherWind HumidityBarometerVisibility
7:00 AM
Sat, Apr 25
51 °FLight rain. Overcast.1 mph73%29.90 "Hg9 mi
6:00 AM50 °FOvercast.2 mph68%29.89 "Hg34 mi
4:00 AM45 °FPassing clouds.1 mph84%29.88 "Hg28 mi
3:00 AM44 °FPassing clouds.1 mph76%29.89 "Hg34 mi
1:00 AM45 °FClear.1 mph80%29.91 "Hg28 mi
12:00 AM49 °FClear.1 mph70%29.91 "Hg34 mi
10:00 PM
Fri, Apr 24
55 °FPassing clouds.1 mph59%29.89 "Hg22 mi
9:00 PM58 °FClear.1 mph48%29.89 "Hg37 mi
7:00 PM71 °FPassing clouds.1 mph26%29.88 "Hg37 mi
6:00 PM70 °FPartly sunny.2 mph23%29.89 "Hg34 mi
4:00 PM70 °FScattered clouds.2 mph24%29.92 "Hg28 mi
3:00 PM70 °FPassing clouds.2 mph25%29.94 "Hg28 mi
1:00 PM65 °FPassing clouds.2 mph32%29.98 "Hg19 mi
12:00 PM63 °FScattered clouds.2 mph40%30.00 "Hg17 mi
10:00 AM55 °FSunny.2 mph51%30.02 "Hg22 mi
9:00 AM50 °FScattered clouds.1 mph61%30.03 "Hg13 mi
Weather by CustomWeather, © 2015

See weather overviewHow to use our weather pages